Weather History for Durango, Mexico

Change the Weather History Date:

Tuesday, March 19, 2013

  Actual Average Record
Temperature  
Mean Temperature 66 °F -  
Max Temperature 91 °F 79 °F 91 °F (2013)
Min Temperature 41 °F 44 °F 26 °F (2008)
Cooling Degree Days 1    
Growing Degree Days 16 (Base 50)    
Moisture  
Dew Point 13 °F    
Average Humidity 18    
Maximum Humidity 60    
Minimum Humidity 4    
Precipitation  
Precipitation 0.00 in - - ()
Sea Level Pressure  
Sea Level Pressure 30.00 in    
Wind  
Wind Speed 4 mph ()    
Max Wind Speed 15 mph    
Max Gust Speed -    
Visibility 11.0 miles    
Events      
Averages and records for this station are not official NWS values.
T = Trace of Precipitation, MM = Missing Value Source: Averaged Metar Reports

Daily Weather History Graph

Daily Weather History Graph

Search for Another Location

Airport:

Trip Planner

Search our weather history database for the weather conditions in past years. The results will help you decide how hot, cold, wet, or windy it might be!

Date:

Astronomy

Mar. 19, 2013 Rise Set
Actual Time 7:02 AM CST 7:09 PM CST
Civil Twilight 6:40 AM CST 7:31 PM CST
Nautical Twilight 6:13 AM CST 7:58 PM CST
Astronomical Twilight 5:47 AM CST 8:24 PM CST
Moon 12:29 PM CST (3/19) 1:23 AM CST (3/19)
Length of Visible Light 12h 51m
Length of Day
12h 06m
Waxing Crescent, 50% of the Moon is Illuminated
Mar 19
Waxing Crescent
Mar 27
Full
Apr 2
Last Quarter
Apr 10
New
Apr 18
First Quarter

Hourly Weather History & Observations

Time (CST) Temp. Dew Point Humidity Pressure Visibility Wind Dir Wind Speed Gust Speed Precip Events Conditions
2:50 AM 54 °F 30 °F 27% 29.80 in 6 mi West 2.2 mph - -  
5:55 AM 45 °F 27 °F 36% 29.91 in 6 mi Calm Calm - -  
6:02 AM 39.2 °F 24.8 °F 56% 29.94 in 10.0 mi Calm Calm - N/A   Clear
6:40 AM 33.8 °F 21.2 °F 60% 30.22 in 10.0 mi Calm Calm - N/A   Clear
7:40 AM 35.6 °F 21.2 °F 56% 30.25 in 12.0 mi Calm Calm - N/A   Clear
8:40 AM 48.2 °F 21.2 °F 34% 30.01 in 12.0 mi Calm Calm - N/A   Clear
8:54 AM 53 °F 25 °F 22% 30.04 in 12 mi Calm Calm - -  
9:41 AM 59.0 °F 19.4 °F 22% 30.27 in 12.0 mi South 2.3 mph - N/A   Clear
10:44 AM 64.4 °F 19.4 °F 18% 30.25 in 12.0 mi SSW 4.6 mph - N/A   Clear
11:44 AM 71.6 °F 15.8 °F 12% 29.88 in 14.0 mi South 6.9 mph - N/A   Clear
11:45 AM 74 °F 24 °F 7% 29.98 in 25 mi East 2.2 mph - -  
12:44 PM 77.0 °F 1.4 °F 5% 30.19 in 14.0 mi SSE 4.6 mph - N/A   Clear
1:47 PM 82.4 °F -2.2 °F 4% 30.14 in 14.0 mi South 13.8 mph - N/A   Clear
2:40 PM 82.4 °F -4.0 °F 4% 30.10 in 14.0 mi South 6.9 mph - N/A   Clear
2:58 PM 85 °F 15 °F 4% 29.77 in 31 mi SSW 4.5 mph - -  
3:45 PM 86.0 °F -11.2 °F 4% 30.06 in 14.0 mi NW 9.2 mph - N/A   Clear
4:48 PM 84.2 °F -11.2 °F 4% 30.05 in 14.0 mi WSW 15.0 mph - N/A   Clear
5:47 PM 82.4 °F -11.2 °F 4% 30.05 in 14.0 mi SW 9.2 mph - N/A   Clear
5:50 PM 85 °F 27 °F 6% 29.63 in 25 mi WSW 8.9 mph - -  
6:41 PM 80.6 °F -5.8 °F 4% 30.07 in 14.0 mi WSW 15.0 mph - N/A   Clear
7:41 PM 75.2 °F -0.4 °F 5% 30.10 in 10.0 mi WSW 10.4 mph - N/A   Clear
8:45 PM 69.8 °F 6.8 °F 9% 29.86 in 8.0 mi SW 10.4 mph - N/A   Clear
8:55 PM 71 °F 32 °F 14% 29.63 in 6 mi WSW 8.9 mph - -  
9:48 PM 64.4 °F 10.4 °F 12% 30.18 in 8.0 mi SSW 10.4 mph - N/A   Clear
11:55 PM 64 °F 27 °F 14% 29.69 in 6 mi SW 2.2 mph - -